TimeCDT,TemperatureF,Dew PointF,Humidity,Sea Level PressureIn,VisibilityMPH,Wind Direction,Wind SpeedMPH,Gust SpeedMPH,PrecipitationIn,Events,Conditions,WindDirDegrees,DateUTC
12:15 AM,72.5,59.9,64,29.86,10.0,SE,9.2,-,N/A,,Clear,140,2013-05-19 05:15:00
12:35 AM,72.5,60.1,65,29.86,10.0,SE,9.2,-,N/A,,Clear,140,2013-05-19 05:35:00
12:55 AM,72.5,60.1,65,29.85,10.0,SE,9.2,-,N/A,,Clear,130,2013-05-19 05:55:00
1:15 AM,72.0,60.3,67,29.87,10.0,SSE,6.9,-,N/A,,Clear,150,2013-05-19 06:15:00
1:35 AM,72.9,60.4,65,29.88,10.0,SSE,9.2,-,N/A,,Mostly Cloudy,160,2013-05-19 06:35:00
1:55 AM,73.4,60.8,65,29.88,10.0,SSE,10.4,-,N/A,,Overcast,160,2013-05-19 06:55:00
2:15 AM,74.1,61.0,63,29.86,10.0,SSE,11.5,-,N/A,,Overcast,150,2013-05-19 07:15:00
2:35 AM,74.7,61.0,62,29.86,10.0,SSE,11.5,-,N/A,,Overcast,150,2013-05-19 07:35:00
2:55 AM,74.5,61.0,63,29.87,10.0,South,11.5,-,N/A,,Scattered Clouds,170,2013-05-19 07:55:00
3:15 AM,74.8,61.3,63,29.87,10.0,SSE,9.2,-,N/A,,Mostly Cloudy,150,2013-05-19 08:15:00
3:35 AM,74.3,61.3,64,29.86,10.0,SE,8.1,-,N/A,,Overcast,140,2013-05-19 08:35:00
3:55 AM,74.5,61.7,64,29.85,10.0,SE,10.4,-,N/A,,Overcast,140,2013-05-19 08:55:00
4:15 AM,73.8,61.9,66,29.84,10.0,SE,10.4,-,N/A,,Mostly Cloudy,140,2013-05-19 09:15:00
4:35 AM,73.6,62.2,68,29.83,10.0,SE,10.4,-,N/A,,Mostly Cloudy,140,2013-05-19 09:35:00
4:55 AM,73.4,62.6,69,29.84,10.0,SE,9.2,-,N/A,,Mostly Cloudy,140,2013-05-19 09:55:00
5:15 AM,73.2,62.6,69,29.83,10.0,SSE,9.2,-,N/A,,Overcast,160,2013-05-19 10:15:00
5:35 AM,72.1,64.0,76,29.83,7.0,SE,6.9,-,0.05,Rain,Light Rain,130,2013-05-19 10:35:00
5:55 AM,72.0,64.4,77,29.84,7.0,Calm,Calm,-,0.05,Rain,Light Rain,0,2013-05-19 10:55:00
6:15 AM,71.8,64.2,77,29.85,7.0,East,10.4,-,N/A,,Overcast,80,2013-05-19 11:15:00
6:35 AM,71.6,64.0,77,29.86,7.0,SE,9.2,-,N/A,,Mostly Cloudy,130,2013-05-19 11:35:00
7:15 AM,71.6,64.4,78,29.84,5.0,SSE,6.9,-,N/A,,Haze,160,2013-05-19 12:15:00
7:35 AM,71.6,64.6,78,29.84,4.0,ESE,8.1,-,N/A,,Haze,120,2013-05-19 12:35:00
7:55 AM,72.1,64.6,77,29.83,5.0,ESE,11.5,-,N/A,,Haze,110,2013-05-19 12:55:00
8:15 AM,72.9,64.9,76,29.83,5.0,SE,8.1,-,N/A,,Haze,130,2013-05-19 13:15:00
8:35 AM,73.6,65.1,75,29.82,5.0,ESE,10.4,-,N/A,,Haze,120,2013-05-19 13:35:00
8:55 AM,74.3,65.3,73,29.83,5.0,SE,11.5,-,N/A,,Haze,140,2013-05-19 13:55:00
9:15 AM,75.6,66.2,73,29.82,5.0,SE,11.5,-,N/A,,Haze,140,2013-05-19 14:15:00
9:55 AM,78.1,66.6,68,29.84,5.0,SE,16.1,-,N/A,,Haze,140,2013-05-19 14:55:00
10:15 AM,80.1,67.5,65,29.85,5.0,South,15.0,-,N/A,,Haze,180,2013-05-19 15:15:00
10:35 AM,79.5,67.1,66,29.85,5.0,South,18.4,23.0,N/A,,Haze,180,2013-05-19 15:35:00
10:55 AM,80.8,67.3,63,29.85,5.0,South,12.7,20.7,N/A,,Haze,170,2013-05-19 15:55:00
11:15 AM,80.8,67.8,65,29.85,5.0,South,15.0,19.6,N/A,,Haze,170,2013-05-19 16:15:00
11:35 AM,77.9,68.4,72,29.82,2.5,SE,19.6,25.3,0.09,Rain,Heavy Rain,130,2013-05-19 16:35:00
11:55 AM,74.5,66.6,76,29.78,7.0,East,18.4,23.0,0.11,Rain,Light Rain,100,2013-05-19 16:55:00
12:15 PM,73.9,62.1,66,29.75,10.0,ESE,11.5,-,N/A,,Clear,110,2013-05-19 17:15:00
12:35 PM,74.5,63.5,68,29.77,10.0,East,8.1,-,N/A,,Clear,100,2013-05-19 17:35:00
12:55 PM,78.3,68.5,72,29.75,7.0,East,8.1,-,N/A,,Clear,90,2013-05-19 17:55:00
1:15 PM,82.4,70.5,67,29.76,5.0,SE,11.5,16.1,N/A,,Haze,130,2013-05-19 18:15:00
1:35 PM,83.3,70.2,64,29.76,5.0,SSE,16.1,-,N/A,,Haze,150,2013-05-19 18:35:00
2:15 PM,83.3,68.9,62,29.75,5.0,SE,15.0,24.2,N/A,,Haze,140,2013-05-19 19:15:00
2:35 PM,84.6,68.4,58,29.74,7.0,SE,17.3,24.2,N/A,,Scattered Clouds,140,2013-05-19 19:35:00
2:55 PM,85.6,66.6,53,29.74,10.0,SSE,17.3,23.0,N/A,,Clear,150,2013-05-19 19:55:00
3:35 PM,86.7,64.9,48,29.72,10.0,SSE,19.6,24.2,N/A,,Clear,160,2013-05-19 20:35:00
3:55 PM,87.3,66.0,49,29.72,7.0,SSE,17.3,24.2,N/A,,Scattered Clouds,150,2013-05-19 20:55:00
4:15 PM,87.6,68.0,52,29.71,7.0,SSE,15.0,-,N/A,,Mostly Cloudy,160,2013-05-19 21:15:00
4:35 PM,89.6,68.2,49,29.69,7.0,SSE,18.4,26.5,N/A,,Scattered Clouds,150,2013-05-19 21:35:00
4:55 PM,87.6,67.1,50,29.70,7.0,SSE,16.1,-,N/A,,Clear,160,2013-05-19 21:55:00
5:15 PM,85.8,68.2,55,29.64,7.0,ESE,10.4,-,N/A,Rain,Light Rain,110,2013-05-19 22:15:00
5:35 PM,85.1,66.6,54,29.64,7.0,SSE,18.4,28.8,N/A,Rain,Light Rain,150,2013-05-19 22:35:00
5:55 PM,81.3,57.4,44,29.67,10.0,SSE,25.3,36.8,N/A,,Light Drizzle,160,2013-05-19 22:55:00
6:15 PM,77.9,52.5,41,29.67,10.0,SE,20.7,26.5,N/A,,Scattered Clouds,130,2013-05-19 23:15:00
6:35 PM,76.1,54.0,46,29.66,10.0,SE,11.5,-,N/A,,Clear,130,2013-05-19 23:35:00
6:55 PM,74.8,56.1,52,29.64,10.0,ESE,9.2,-,N/A,,Clear,120,2013-05-19 23:55:00
7:15 PM,74.5,58.1,57,29.65,10.0,ESE,10.4,-,N/A,,Clear,120,2013-05-20 00:15:00
7:35 PM,75.2,59.7,58,29.65,10.0,SE,10.4,-,N/A,,Clear,130,2013-05-20 00:35:00
7:55 PM,74.8,60.3,60,29.67,10.0,SE,10.4,-,N/A,,Clear,130,2013-05-20 00:55:00
8:15 PM,75.2,59.9,59,29.64,10.0,East,11.5,-,N/A,,Scattered Clouds,90,2013-05-20 01:15:00
8:35 PM,74.3,59.9,61,29.63,10.0,ESE,11.5,-,N/A,,Scattered Clouds,110,2013-05-20 01:35:00
8:55 PM,74.3,59.7,60,29.63,10.0,ESE,13.8,-,N/A,,Clear,110,2013-05-20 01:55:00
9:15 PM,77.5,60.8,56,29.62,10.0,ESE,19.6,-,N/A,,Mostly Cloudy,120,2013-05-20 02:15:00
9:35 PM,77.9,61.2,56,29.62,10.0,ESE,19.6,27.6,N/A,,Overcast,120,2013-05-20 02:35:00
9:55 PM,77.4,61.7,58,29.64,10.0,SE,19.6,25.3,N/A,,Overcast,130,2013-05-20 02:55:00
9:57 PM,77.0,62.6,61,29.65,10.0,SE,18.4,-,N/A,,Overcast,130,2013-05-20 02:57:00
10:15 PM,77.4,62.1,59,29.66,10.0,SE,13.8,21.9,N/A,,Mostly Cloudy,140,2013-05-20 03:15:00
10:35 PM,77.9,61.5,57,29.76,7.0,West,27.6,39.1,0.01,Rain,Heavy Rain,260,2013-05-20 03:35:00
11:15 PM,68.9,61.3,77,29.75,10.0,WSW,15.0,-,N/A,Rain,Light Rain,240,2013-05-20 04:15:00
11:35 PM,68.4,61.3,78,29.72,10.0,SW,6.9,-,N/A,Rain,Light Rain,230,2013-05-20 04:35:00
11:55 PM,68.2,61.5,79,29.71,10.0,Calm,Calm,-,N/A,,Scattered Clouds,0,2013-05-20 04:55:00